Wind_Speed
34 35 35 34 34 34 34 34 35 34 34 33 34 34 34 35 35 36 36 36 37 37 38 39 39 40 41 42 42 42 42 42 43 45 46 47 48 48 49 49 50 51 52 53
34 34 35 34 33 34 35 35 35 35 35 35 36 36 36 36 36 36 36 37 37 38 39 39 40 40 40 41 42 42 41 41 42 43 44 45 46 47 48 49 50 50 51 52
36 35 35 35 33 33 34 34 35 35 35 36 36 36 36 36 37 37 38 38 37 38 39 39 40 41 41 42 42 42 41 41 41 42 43 44 46 47 48 48 49 49 50 51
36 35 36 35 34 34 34 33 34 34 35 36 36 36 37 37 38 38 38 38 38 39 39 39 40 40 41 42 42 41 41 41 41 42 42 43 45 46 47 48 48 49 50 51
35 35 36 35 34 34 34 33 33 34 35 35 36 36 37 37 38 38 39 39 39 39 39 39 39 40 40 41 41 41 42 43 43 43 42 43 43 44 44 46 47 48 49 50
34 35 36 35 35 35 35 36 34 35 35 36 36 36 37 37 38 38 39 40 40 39 39 39 39 39 39 39 39 40 41 42 43 43 43 43 43 43 45 45 46 48 49 51
34 35 35 34 34 35 35 36 36 36 35 36 36 37 37 37 37 38 38 39 39 39 39 39 39 38 37 37 37 38 39 41 41 42 42 42 42 43 44 45 47 48 49 49
33 33 33 33 33 34 35 35 35 36 36 36 36 37 37 38 38 38 38 38 38 38 38 38 38 37 37 37 37 37 38 39 40 41 42 43 43 42 42 43 45 46 47 47
33 32 32 32 33 34 34 34 35 35 35 35 36 36 36 36 36 36 36 37 37 37 37 37 37 37 36 36 36 36 37 38 39 41 41 42 42 42 43 43 43 43 44 45
33 32 32 33 34 34 34 34 34 35 35 36 36 36 35 35 35 35 35 35 35 35 36 35 35 35 36 36 36 36 37 37 38 39 40 41 42 42 43 42 42 42 42 42
32 31 31 32 33 33 33 33 34 34 34 34 34 33 34 34 34 33 33 33 33 34 34 34 34 34 34 35 35 35 36 36 37 38 39 40 40 41 41 41 41 41 40 41
31 30 31 31 32 32 32 33 33 33 33 32 32 32 32 32 32 32 32 32 33 33 33 33 32 32 33 33 34 34 35 35 36 36 36 37 38 38 39 38 38 38 38 39
31 30 31 31 31 31 32 31 32 31 31 31 31 31 31 31 32 32 32 32 32 32 32 31 31 31 31 31 32 32 33 33 33 33 34 34 34 35 35 35 35 36 37 37
31 31 30 30 30 30 30 30 30 31 31 31 30 31 31 31 31 31 31 31 31 31 31 31 30 30 30 30 30 31 31 31 32 31 31 32 32 32 31 32 33 34 35 35
28 29 29 29 29 29 30 30 31 31 31 31 30 30 30 30 30 30 30 30 31 31 31 30 30 30 29 29 30 30 30 30 30 29 29 29 29 29 29 30 31 31 32 32
27 28 28 29 29 29 30 30 30 30 31 30 30 30 30 30 30 30 30 30 30 30 30 29 28 28 28 28 28 29 29 29 28 28 28 28 28 28 28 28 28 28 29 29
26 27 27 28 28 28 29 29 30 30 30 30 29 29 29 29 29 29 29 29 29 29 28 27 27 27 27 27 27 26 27 27 27 26 26 26 26 26 26 26 26 26 26 26
25 26 26 26 27 27 28 28 28 28 28 28 28 28 28 28 29 29 29 29 28 28 27 26 26 26 26 26 26 25 25 25 25 25 25 25 24 24 23 23 23 23 23 23
24 25 25 25 25 26 27 27 27 26 26 26 26 27 27 28 28 29 28 28 27 26 26 25 25 26 25 25 24 24 23 23 22 22 22 22 22 22 21 21 22 22 22 22
24 25 25 25 26 26 26 26 26 26 26 26 26 26 27 27 28 28 27 27 26 25 25 25 25 25 24 24 23 23 23 22 21 20 20 20 19 19 20 20 21 21 21 21
25 25 25 26 26 26 26 26 25 25 25 25 26 26 27 27 27 27 27 26 25 25 24 24 24 24 23 22 22 21 21 20 20 20 19 19 19 19 19 19 19 19 19 19
26 26 26 26 26 26 26 25 25 24 24 25 25 26 26 27 26 26 26 25 24 23 23 23 23 22 22 21 20 20 20 19 19 19 19 18 18 18 18 18 17 17 17 18
26 27 27 27 26 26 26 25 25 24 24 25 25 26 26 26 26 25 24 24 23 22 22 21 21 21 20 20 19 19 18 18 18 18 17 17 17 17 17 17 17 17 17 17
27 27 27 27 27 26 26 25 25 24 25 25 25 25 25 24 24 24 23 22 22 21 20 20 20 19 19 18 18 18 17 17 16 16 16 15 15 15 16 16 16 16 16 16
27 27 27 27 26 25 25 24 24 25 25 24 24 24 23 23 23 22 22 22 21 20 20 20 19 18 18 17 17 17 17 16 16 16 15 16 15 15 15 15 14 14 14 14
27 27 27 26 25 25 24 24 24 24 24 23 23 23 23 22 22 22 21 21 20 20 19 19 19 18 18 17 17 17 16 16 16 16 16 15 15 15 14 13 13 12 12 12
26 26 26 25 25 24 23 22 22 22 22 22 22 22 22 22 22 21 21 21 20 20 19 19 19 18 18 18 18 17 17 17 17 16 16 15 14 13 13 12 12 11 11 11
Wind_Direction
290 290 290 291 291 292 292 293 293 294 293 293 290 289 288 288 288 287 286 284 283 281 280 280 279 278 277 276 274 273 272 269 267 267 267 267 266 266 265 264 262 259 257 255
289 289 288 289 291 292 292 293 292 292 292 291 291 290 288 288 288 288 287 286 284 282 281 281 280 280 278 276 274 273 272 269 268 269 268 268 268 267 267 265 263 261 259 257
288 288 288 289 291 291 291 292 292 292 291 291 291 291 290 289 289 289 289 288 286 285 284 283 281 280 277 275 274 272 271 270 270 271 271 270 268 268 268 266 265 263 261 259
288 288 289 291 291 290 291 292 293 292 291 290 290 290 289 289 289 290 290 289 287 287 287 286 284 281 279 277 275 273 272 271 271 271 271 270 269 268 268 267 266 265 263 261
289 289 290 291 291 290 291 291 292 292 292 291 291 290 290 290 290 290 290 290 289 289 288 287 286 283 281 279 275 273 272 271 272 272 272 271 270 269 268 267 267 265 263 261
290 290 292 293 291 290 290 290 291 293 293 293 292 292 292 292 291 291 291 291 290 289 289 289 288 286 283 280 276 274 273 273 272 273 272 272 271 271 270 269 269 266 264 262
290 291 292 293 292 291 290 292 293 294 294 294 293 294 294 294 293 293 293 292 291 290 290 290 289 287 284 281 279 276 274 274 274 274 273 273 272 272 271 270 269 268 265 263
290 291 293 293 291 290 290 291 293 294 295 295 295 295 295 296 296 296 295 294 293 292 291 290 289 287 285 282 280 278 276 275 275 275 275 274 274 273 273 271 270 268 266 263
290 291 291 291 290 290 291 291 293 294 295 296 296 297 298 298 298 298 297 296 295 294 292 291 290 287 285 283 281 278 277 276 276 276 276 275 275 274 274 274 272 269 267 265
290 292 291 290 290 291 293 293 294 295 296 297 298 299 300 299 299 299 299 298 297 296 295 292 290 287 285 284 282 279 277 277 276 276 276 276 275 276 276 275 273 271 268 266
289 290 289 289 290 292 294 295 295 296 297 298 298 299 300 300 300 300 300 299 299 299 298 296 292 289 287 285 283 280 279 278 278 278 277 276 276 276 276 275 273 271 269 267
289 290 290 291 291 292 295 295 295 296 297 298 299 301 301 301 301 301 301 301 300 300 300 299 296 292 289 286 284 282 281 280 280 279 278 278 277 277 276 274 272 271 270 269
288 288 290 292 293 294 295 295 295 296 298 298 299 301 302 302 302 302 302 302 302 302 302 300 297 295 292 288 285 284 284 283 282 282 281 281 280 279 277 274 273 272 270 270
288 290 291 291 292 293 294 295 296 297 298 299 300 301 302 302 302 303 303 304 304 304 304 302 298 296 294 292 289 288 286 284 284 283 283 282 282 280 278 275 274 273 271 270
290 291 292 292 292 292 293 295 297 298 298 299 301 301 302 302 302 303 305 306 305 305 304 302 300 297 295 293 292 290 288 286 285 284 284 284 283 282 280 277 274 273 271 270
290 291 293 294 293 293 294 296 297 298 299 300 300 301 301 302 302 304 305 306 306 306 304 303 301 299 297 295 294 292 290 288 287 286 286 287 287 284 281 278 276 273 271 269
293 294 294 294 295 294 296 297 298 299 300 300 300 300 301 302 303 305 306 306 306 306 305 304 303 303 301 299 296 294 292 289 289 288 288 290 289 286 283 280 278 274 271 268
298 298 299 298 298 298 299 300 300 301 302 302 301 302 302 303 304 306 307 307 306 305 304 303 304 304 303 303 299 296 294 294 293 290 290 290 289 288 286 283 280 275 270 268
303 302 302 301 300 301 301 302 302 302 303 304 304 304 304 305 306 308 309 309 307 305 303 303 304 305 305 304 302 301 299 299 299 297 295 292 290 288 286 284 281 277 272 269
305 304 303 302 302 302 301 301 302 302 302 303 304 305 305 306 308 308 309 309 308 306 304 304 305 306 306 306 304 302 301 300 300 302 300 296 292 290 288 286 283 278 275 273
306 306 305 303 303 303 302 302 301 301 302 303 305 305 306 308 309 309 310 309 309 308 307 307 306 307 307 308 306 302 300 300 302 303 301 298 295 292 289 287 285 280 277 275
309 308 307 306 304 303 302 302 301 301 302 304 306 306 308 309 310 310 309 310 310 309 309 310 309 309 309 309 308 306 303 302 301 301 300 298 297 294 291 287 284 281 278 275
311 310 309 307 305 303 302 301 301 301 303 304 305 306 308 310 310 310 310 310 310 310 310 311 310 309 310 311 311 311 310 308 304 303 301 300 297 295 293 289 285 282 279 277
311 311 310 308 305 303 301 300 300 301 302 304 305 307 308 310 311 312 312 312 312 312 312 312 312 312 312 312 311 312 313 312 309 306 305 304 302 299 296 294 288 284 282 279
310 310 310 308 306 304 302 300 300 301 302 304 305 307 308 310 311 313 313 313 313 313 314 314 313 314 315 314 313 313 314 314 314 311 306 301 299 299 299 298 293 290 287 284
310 310 310 309 307 304 302 300 300 301 302 303 304 306 307 309 310 312 313 312 312 312 313 313 313 312 312 313 312 313 316 316 314 313 312 308 303 300 298 296 295 295 291 287
311 311 311 310 309 307 305 303 302 302 303 303 303 305 307 308 310 311 312 311 310 310 311 312 312 311 310 311 311 311 311 312 312 311 311 309 306 304 302 300 297 297 296 291
Height
5613 5611 5608 5605 5603 5600 5597 5594 5591 5589 5586 5583 5579 5575 5572 5569 5566 5564 5561 5558 5556 5553 5551 5549 5547 5545 5543 5541 5539 5538 5536 5535 5535 5534 5533 5532 5531 5530 5530 5530 5530 5530 5532 5533
5604 5601 5598 5596 5594 5591 5587 5584 5581 5578 5577 5574 5569 5566 5562 5559 5556 5553 5551 5548 5545 5542 5540 5537 5535 5533 5531 5529 5527 5526 5524 5523 5523 5522 5521 5519 5518 5517 5517 5516 5516 5516 5518 5519
5593 5591 5587 5586 5585 5581 5578 5575 5572 5569 5567 5563 5559 5556 5552 5549 5546 5543 5540 5537 5534 5531 5528 5526 5523 5521 5519 5517 5515 5514 5512 5511 5511 5509 5508 5507 5505 5504 5504 5503 5503 5503 5504 5505
5582 5580 5577 5579 5575 5571 5568 5566 5562 5559 5556 5553 5549 5546 5542 5538 5535 5532 5529 5526 5523 5520 5517 5515 5512 5509 5507 5505 5503 5501 5500 5499 5499 5497 5496 5494 5493 5491 5491 5490 5490 5490 5490 5491
5571 5568 5566 5567 5565 5561 5557 5556 5553 5549 5546 5542 5539 5536 5533 5528 5525 5522 5518 5515 5512 5509 5506 5503 5500 5497 5495 5493 5491 5489 5488 5487 5486 5485 5483 5482 5480 5479 5478 5477 5477 5477 5477 5477
5561 5558 5556 5558 5554 5550 5547 5545 5543 5539 5535 5532 5528 5525 5523 5518 5514 5511 5508 5504 5501 5498 5495 5492 5489 5485 5483 5481 5479 5477 5476 5474 5473 5472 5471 5469 5468 5467 5465 5464 5463 5463 5463 5464
5552 5548 5547 5547 5543 5540 5539 5536 5532 5528 5525 5521 5518 5514 5511 5507 5504 5500 5497 5493 5490 5486 5484 5481 5477 5474 5471 5469 5467 5465 5464 5462 5461 5459 5458 5457 5455 5454 5452 5451 5450 5449 5449 5450
5542 5539 5540 5537 5533 5531 5528 5525 5522 5518 5515 5512 5508 5504 5500 5497 5493 5490 5486 5483 5479 5476 5473 5469 5466 5463 5460 5458 5456 5454 5452 5451 5449 5447 5446 5444 5442 5441 5439 5437 5436 5435 5435 5435
5534 5534 5530 5526 5524 5521 5518 5515 5512 5509 5506 5502 5499 5495 5491 5487 5483 5480 5476 5472 5469 5465 5462 5458 5455 5451 5449 5447 5444 5442 5440 5439 5437 5435 5433 5431 5429 5427 5426 5424 5422 5422 5421 5421
5524 5523 5520 5517 5514 5511 5509 5506 5503 5500 5496 5493 5489 5485 5482 5478 5474 5470 5466 5462 5459 5455 5451 5448 5444 5440 5438 5435 5432 5430 5429 5427 5424 5422 5420 5418 5416 5414 5412 5410 5409 5408 5408 5408
5515 5514 5511 5508 5505 5502 5499 5496 5493 5490 5487 5483 5480 5476 5472 5469 5465 5461 5457 5453 5449 5445 5441 5437 5433 5430 5427 5424 5421 5419 5417 5415 5413 5410 5408 5406 5403 5401 5399 5397 5395 5395 5395 5394
5507 5505 5502 5499 5496 5493 5490 5487 5484 5481 5478 5474 5471 5467 5463 5460 5456 5452 5448 5444 5440 5436 5432 5428 5423 5420 5416 5413 5410 5408 5406 5404 5401 5399 5397 5394 5391 5389 5386 5385 5384 5383 5382 5382
5498 5495 5492 5490 5487 5484 5481 5478 5475 5472 5469 5466 5462 5459 5455 5451 5447 5443 5439 5435 5431 5427 5422 5418 5414 5410 5407 5403 5400 5398 5395 5393 5390 5388 5386 5383 5380 5378 5376 5374 5372 5371 5370 5370
5488 5486 5484 5481 5478 5475 5472 5470 5466 5463 5460 5457 5453 5450 5446 5442 5438 5435 5431 5426 5422 5418 5413 5409 5405 5401 5398 5394 5391 5388 5386 5383 5380 5378 5375 5373 5370 5367 5365 5363 5362 5360 5359 5358
5479 5477 5474 5472 5469 5467 5464 5461 5458 5455 5451 5448 5444 5441 5437 5434 5430 5426 5422 5418 5414 5409 5405 5401 5397 5393 5389 5386 5382 5379 5376 5374 5371 5368 5366 5363 5360 5358 5356 5353 5352 5350 5349 5348
5470 5468 5466 5463 5461 5458 5455 5452 5449 5446 5443 5439 5436 5433 5429 5426 5422 5418 5414 5410 5405 5401 5396 5392 5388 5384 5381 5377 5374 5371 5368 5365 5362 5359 5357 5354 5351 5349 5346 5344 5342 5341 5339 5338
5462 5460 5458 5455 5452 5449 5447 5444 5441 5437 5434 5431 5428 5424 5421 5417 5414 5410 5406 5402 5397 5393 5389 5385 5381 5377 5373 5369 5365 5362 5359 5356 5353 5351 5348 5346 5343 5340 5337 5335 5333 5332 5331 5329
5454 5452 5449 5447 5444 5441 5438 5435 5432 5429 5426 5422 5419 5416 5413 5409 5406 5402 5398 5393 5389 5385 5381 5377 5374 5370 5366 5362 5358 5354 5351 5348 5345 5342 5340 5337 5335 5332 5330 5328 5326 5324 5323 5322
5447 5445 5442 5439 5436 5433 5430 5427 5424 5421 5418 5415 5412 5408 5405 5402 5398 5394 5390 5386 5382 5378 5374 5370 5366 5363 5359 5355 5351 5347 5344 5340 5338 5335 5332 5330 5327 5325 5323 5321 5319 5317 5316 5315
5440 5437 5435 5432 5429 5426 5423 5420 5417 5414 5411 5408 5404 5401 5398 5394 5391 5387 5383 5378 5374 5370 5366 5363 5359 5356 5352 5348 5344 5341 5338 5334 5331 5329 5326 5323 5321 5319 5316 5314 5313 5311 5310 5309
5433 5430 5427 5424 5421 5418 5415 5412 5409 5406 5403 5400 5397 5394 5391 5387 5383 5379 5375 5371 5367 5363 5359 5356 5352 5349 5345 5342 5338 5335 5331 5328 5326 5323 5320 5318 5315 5313 5311 5309 5307 5305 5304 5303
5426 5423 5420 5417 5414 5411 5408 5405 5402 5399 5396 5393 5390 5387 5383 5380 5376 5372 5368 5365 5361 5357 5353 5349 5346 5342 5339 5336 5332 5329 5326 5323 5320 5317 5315 5312 5310 5308 5306 5304 5302 5300 5299 5298
5419 5416 5412 5409 5406 5403 5400 5397 5394 5391 5389 5386 5383 5380 5376 5373 5369 5365 5362 5358 5354 5351 5347 5344 5340 5337 5333 5330 5327 5324 5320 5317 5315 5312 5310 5307 5305 5303 5300 5298 5297 5295 5294 5293
5412 5408 5405 5402 5398 5395 5393 5390 5387 5384 5381 5379 5376 5372 5369 5366 5362 5359 5355 5352 5348 5345 5341 5338 5335 5331 5328 5325 5322 5319 5316 5313 5310 5307 5305 5302 5300 5298 5296 5294 5292 5290 5289 5288
5404 5401 5397 5394 5390 5387 5385 5382 5379 5377 5374 5371 5369 5366 5363 5359 5356 5353 5349 5346 5343 5339 5336 5333 5330 5327 5323 5320 5317 5315 5312 5309 5306 5303 5300 5298 5296 5293 5291 5289 5287 5286 5284 5283
5397 5394 5390 5387 5383 5380 5377 5375 5372 5370 5367 5364 5362 5359 5356 5353 5350 5347 5344 5340 5337 5334 5331 5328 5325 5322 5319 5316 5313 5310 5307 5305 5302 5299 5296 5294 5291 5289 5287 5285 5284 5282 5281 5279
5390 5387 5383 5380 5376 5373 5370 5367 5365 5363 5360 5358 5355 5352 5350 5347 5344 5341 5338 5335 5332 5329 5326 5323 5320 5317 5314 5311 5308 5306 5303 5300 5297 5295 5292 5290 5288 5285 5284 5282 5280 5279 5278 5277